Date String (YYYY-MM-DD hh:mm:ss) UTC,Instrument flags,Ambient pressure (hPa),Sample flow (lpm),Bypass flow (lpm),Sample temperature (°C),Ambient temperature (°C),ASC tube jacket temperature (°C),LED temperature (°C),Box temperature (°C),Sample RH (%),Span deviation,Mass concentration (μg/m³),Mass concentration (μg/m³),Mass concentration (μg/m³)
DateTimeUTC,F1_M11,P_M11,Q1_M11,Q2_M11,T1_M11,T2_M11,T3_M11,T4_M11,T5_M11,U1_M11,ZSPAN_M11,X0_M11,X2_M11,X1_M11
2021-08-29 00:00:00,,0827.1,5.01,0.00,29.1,27.1,00.0,38.1,30.8,25.4,0002.1,0031.35,0018.56,0017.06
2021-08-29 00:01:00,,0827.0,5.01,0.00,29.0,25.7,00.0,38.0,30.4,25.5,0002.4,0031.48,0018.57,0017.05
2021-08-29 00:02:00,,0826.9,5.00,0.00,28.9,25.8,00.0,38.0,30.4,25.8,0002.4,0030.53,0018.58,0017.04
2021-08-29 00:03:00,,0827.1,5.00,0.00,28.9,26.2,00.0,38.0,30.5,26.2,0002.4,0030.45,0018.58,0017.06
2021-08-29 00:04:00,,0827.1,5.00,0.00,28.9,26.7,00.0,38.0,30.6,26.2,0002.3,0030.24,0018.57,0017.06
2021-08-29 00:05:00,,0827.0,4.99,0.00,28.9,27.1,00.0,38.0,30.7,26.0,0002.5,0029.69,0018.52,0017.06
2021-08-29 00:06:00,,0827.0,5.01,0.00,29.0,27.5,00.0,38.0,30.9,25.8,0002.6,0029.18,0018.53,0017.06
2021-08-29 00:07:00,,0827.2,5.01,0.00,29.0,27.8,00.0,38.0,31.0,26.0,0002.5,0028.82,0018.51,0017.04
2021-08-29 00:08:00,,0827.1,5.00,0.00,29.1,28.1,00.0,38.0,31.1,26.2,0002.7,0029.19,0018.50,0017.05
2021-08-29 00:09:00,,0827.1,5.00,0.00,29.2,28.3,00.0,38.0,31.1,26.1,0002.7,0029.52,0018.47,0017.07
2021-08-29 00:10:00,,0827.1,4.99,0.00,29.2,28.5,00.0,38.1,31.2,25.9,0002.9,0028.87,0018.46,0017.08
2021-08-29 00:11:00,,0827.2,5.00,0.00,29.2,27.5,00.0,38.1,30.9,26.0,0002.9,0028.40,0018.41,0017.10
2021-08-29 00:12:00,,0827.2,5.01,0.00,29.1,26.0,00.0,38.1,30.5,25.9,0002.9,0028.65,0018.44,0017.11
2021-08-29 00:13:00,,0827.2,4.99,0.00,29.0,25.8,00.0,38.1,30.4,25.9,0002.9,0028.68,0018.46,0017.12
2021-08-29 00:14:00,,0827.2,5.00,0.00,28.9,26.2,00.0,38.1,30.5,25.1,0003.0,0028.28,0018.43,0017.11
2021-08-29 00:15:00,,0827.2,5.00,0.00,28.9,26.6,00.0,38.0,30.6,25.8,0003.0,0028.72,0018.41,0017.10
2021-08-29 00:16:00,,0827.2,4.99,0.00,29.0,27.1,00.0,38.0,30.8,25.3,0002.9,0029.99,0018.47,0017.12
2021-08-29 00:17:00,,0827.3,5.01,0.00,29.0,27.5,00.0,38.0,30.9,25.0,0002.9,0030.84,0018.49,0017.10
2021-08-29 00:18:00,,0827.2,5.00,0.00,29.1,27.8,00.0,38.0,31.0,25.1,0002.9,0030.39,0018.52,0017.15
2021-08-29 00:19:00,,0827.2,5.01,0.00,29.1,28.1,00.0,38.1,31.1,25.1,0002.7,0030.53,0018.65,0017.19
2021-08-29 00:20:00,,0827.2,5.00,0.00,29.2,28.3,00.0,38.1,31.2,25.3,0002.5,0030.03,0018.63,0017.18
2021-08-29 00:21:00,,0827.2,4.99,0.00,29.2,27.7,00.0,38.1,31.0,24.3,0002.5,0030.21,0018.65,0017.18
2021-08-29 00:22:00,,0827.2,5.00,0.00,29.1,26.1,00.0,38.1,30.6,24.7,0002.6,0030.45,0018.68,0017.17
2021-08-29 00:23:00,,0827.2,5.00,0.00,29.0,25.7,00.0,38.1,30.4,24.8,0002.6,0030.49,0018.70,0017.16
2021-08-29 00:24:00,,0827.2,5.00,0.00,28.9,26.1,00.0,38.1,30.5,24.6,0002.6,0030.94,0018.69,0017.15
2021-08-29 00:25:00,,0827.2,5.00,0.00,28.9,26.6,00.0,38.0,30.6,24.8,0002.7,0030.60,0018.71,0017.15
2021-08-29 00:26:00,,0827.2,4.98,0.00,28.9,27.0,00.0,38.0,30.7,24.6,0002.7,0031.05,0018.73,0017.17
2021-08-29 00:27:00,,0827.2,5.01,0.00,29.0,27.4,00.0,38.0,30.9,24.9,0002.5,0030.73,0018.65,0017.15
2021-08-29 00:28:00,,0827.2,4.99,0.00,29.0,27.8,00.0,38.0,31.0,24.7,0002.4,0029.33,0018.61,0017.14
2021-08-29 00:29:00,,0827.2,5.01,0.00,29.1,28.1,00.0,38.1,31.0,24.4,0002.2,0030.08,0018.51,0017.06
2021-08-29 00:30:00,,0827.2,5.00,0.00,29.2,28.3,00.0,38.1,31.1,24.5,0002.1,0030.81,0018.44,0017.01
2021-08-29 00:31:00,,0827.2,5.00,0.00,29.2,27.9,00.0,38.1,31.0,24.8,0002.2,0031.98,0018.44,0017.01
2021-08-29 00:32:00,,0827.2,5.00,0.00,29.1,26.2,00.0,38.1,30.6,25.4,0002.0,0032.37,0018.44,0017.01
2021-08-29 00:33:00,,0827.2,5.01,0.00,29.0,25.6,00.0,38.1,30.4,25.6,0002.0,0032.79,0018.50,0017.03
2021-08-29 00:34:00,,0827.2,4.99,0.00,28.9,25.9,00.0,38.1,30.5,25.5,0001.9,0033.45,0018.57,0017.07
2021-08-29 00:35:00,,0827.2,4.99,0.00,28.9,26.4,00.0,38.0,30.6,25.7,0002.0,0033.86,0018.60,0017.11
2021-08-29 00:36:00,,0827.2,5.01,0.00,28.9,26.9,00.0,38.0,30.7,26.1,0002.0,0034.31,0018.72,0017.19
2021-08-29 00:37:00,,0827.3,4.99,0.00,29.0,27.3,00.0,38.0,30.8,26.2,0002.1,0033.58,0018.78,0017.26
2021-08-29 00:38:00,,0827.3,5.00,0.00,29.0,27.7,00.0,38.0,30.9,26.0,0002.2,0032.73,0018.91,0017.33
2021-08-29 00:39:00,,0827.2,5.01,0.00,29.1,28.0,00.0,38.0,31.0,25.8,0002.3,0033.45,0019.09,0017.43
2021-08-29 00:40:00,,0827.2,4.99,0.00,29.1,28.2,00.0,38.1,31.1,25.6,0002.5,0032.98,0019.20,0017.53
2021-08-29 00:41:00,,0827.3,4.99,0.00,29.2,28.4,00.0,38.1,31.2,25.3,0002.6,0031.89,0019.25,0017.63
2021-08-29 00:42:00,,0827.2,5.02,0.00,29.2,27.3,00.0,38.1,30.9,25.3,0002.4,0031.18,0019.40,0017.73
2021-08-29 00:43:00,,0827.2,5.00,0.00,29.0,25.8,00.0,38.1,30.5,25.5,0002.6,0031.06,0019.56,0017.87
2021-08-29 00:44:00,,0827.2,4.99,0.00,28.9,25.6,00.0,38.1,30.4,25.7,0002.6,0030.40,0019.53,0017.93
2021-08-29 00:45:00,,0827.2,5.00,0.00,28.9,26.0,00.0,38.0,30.5,25.7,0002.7,0029.69,0019.60,0018.00
2021-08-29 00:46:00,,0827.2,5.00,0.00,28.9,26.5,00.0,38.0,30.6,25.8,0002.7,0029.75,0019.67,0018.08
2021-08-29 00:47:00,,0827.2,4.99,0.00,28.9,27.0,00.0,38.0,30.7,25.7,0002.7,0029.56,0019.67,0018.11
2021-08-29 00:48:00,,0827.3,5.01,0.00,29.0,27.4,00.0,38.0,30.8,25.7,0002.7,0029.55,0019.68,0018.10
2021-08-29 00:49:00,,0827.3,4.99,0.00,29.0,27.7,00.0,38.0,30.9,25.7,0002.8,0029.39,0019.65,0018.12
2021-08-29 00:50:00,,0827.4,5.00,0.00,29.1,28.0,00.0,38.0,31.0,25.7,0002.8,0029.52,0019.59,0018.13
2021-08-29 00:51:00,,0827.4,5.00,0.00,29.1,28.2,00.0,38.1,31.1,25.7,0002.7,0030.00,0019.65,0018.15
2021-08-29 00:52:00,,0827.4,5.01,0.00,29.2,28.4,00.0,38.1,31.2,25.6,0002.6,0030.34,0019.71,0018.13
2021-08-29 00:53:00,,0827.4,4.99,0.00,29.3,28.6,00.0,38.1,31.2,25.5,0002.8,0030.62,0019.66,0018.09
2021-08-29 00:54:00,,0827.4,5.00,0.00,29.3,28.6,00.0,38.2,31.3,25.4,0002.8,0031.30,0019.64,0018.03
2021-08-29 00:55:00,,0827.5,5.00,0.00,29.3,27.1,00.0,38.2,30.9,25.5,0002.7,0031.38,0019.68,0018.01
2021-08-29 00:56:00,,0827.5,5.01,0.00,29.1,25.7,00.0,38.2,30.5,25.8,0002.5,0031.08,0019.57,0017.97
2021-08-29 00:57:00,,0827.5,4.99,0.00,29.0,25.8,00.0,38.2,30.5,26.0,0002.3,0030.62,0019.49,0017.92
2021-08-29 00:58:00,,0827.5,5.00,0.00,29.0,26.2,00.0,38.1,30.6,26.0,0002.2,0031.05,0019.47,0017.89
2021-08-29 00:59:00,,0827.5,5.01,0.00,29.0,26.7,00.0,38.1,30.7,26.0,0002.1,0031.09,0019.51,0017.90
